Morrisville, VT

12:52 AM EST on February 25, 2017 (GMT -0500)
Morrisville Stowe State

Weather History for KMVL - February, 2014

Change the Weather History Date:

Tuesday, February 4, 2014

  Actual Average Record
Temperature  
Mean Temperature 11 °F 16 °F  
Max Temperature 26 °F 28 °F 52 °F (2016)
Min Temperature -4 °F 4 °F -14 °F (2001)
Degree Days  
Heating Degree Days 54 49  
Month to date heating degree days 179 196  
Since 1 July heating degree days 4874 4858  
Cooling Degree Days 0 0  
Month to date cooling degree days 0 0  
Year to date cooling degree days 0 0  
Moisture  
Dew Point 4 °F    
Average Humidity 71    
Maximum Humidity 92    
Minimum Humidity 50    
Precipitation  
Precipitation T in 0.06 in 0.41 in (1949)
Month to date precipitation 0.30 0.23  
Year to date precipitation 2.71 2.77  
Sea Level Pressure  
Sea Level Pressure 30.43 in    
Wind  
Wind Speed 1 mph (North)    
Max Wind Speed 8 mph    
Max Gust Speed 12 mph    
Visibility 8 miles    
Events Snow    
T = Trace of Precipitation, MM = Missing Value Source: NWS Daily Summary

Daily Weather History Graph

Daily Weather History Graph

Search for Another Location

Airport or City:

Trip Planner

Search our weather history database for the weather conditions in past years. The results will help you decide how hot, cold, wet, or windy it might be!

Date:

Astronomy

Feb. 04, 2014 Rise Set
Actual Time 7:05 AM EST 5:03 PM EST
Civil Twilight 6:34 AM EST 5:34 PM EST
Nautical Twilight 6:00 AM EST 6:09 PM EST
Astronomical Twilight 5:26 AM EST 6:43 PM EST
Moon 9:27 AM EST (2/4) 11:10 PM EST (2/4)
Length of Visible Light 10h 59m
Length of Day
9h 58m
Waxing Crescent, 29% of the Moon is Illuminated
Feb 4
Waxing Crescent
Feb 6
First Quarter
Feb 14
Full
Feb 22
Last Quarter
Mar 1
New

Hourly Weather History & Observations

Time (EST) Temp. Windchill Dew Point Humidity Pressure Visibility Wind Dir Wind Speed Gust Speed Precip Events Conditions
12:54 AM 3.0 °F - -2.0 °F 80% 30.37 in 9.0 mi Calm Calm - N/A   Partly Cloudy
1:54 AM -0.0 °F - -5.1 °F 79% 30.39 in 10.0 mi Calm Calm - N/A   Clear
2:54 AM -0.0 °F - -5.1 °F 79% 30.39 in 10.0 mi Calm Calm - N/A   Clear
3:54 AM -0.9 °F - -6.0 °F 79% 30.41 in 9.0 mi Calm Calm - N/A   Clear
4:54 AM -2.9 °F - -9.0 °F 75% 30.44 in 9.0 mi Calm Calm - N/A   Clear
5:54 AM -2.9 °F - -9.0 °F 75% 30.45 in 7.0 mi Calm Calm - N/A   Mostly Cloudy
6:54 AM -0.0 °F - -6.0 °F 76% 30.46 in 5.0 mi Calm Calm - 0.00 in Snow Light Snow
7:14 AM -0.4 °F - -5.8 °F 78% 30.41 in 2.5 mi Calm Calm - 0.00 in Snow Light Snow
7:26 AM -0.4 °F - -5.8 °F 78% 30.41 in 1.2 mi Calm Calm - 0.00 in Snow Light Snow
7:47 AM 1.4 °F - -2.2 °F 85% 30.41 in 2.0 mi Calm Calm - 0.00 in Snow Light Snow
7:54 AM -0.0 °F - -2.9 °F 88% 30.47 in 3.0 mi Calm Calm - 0.00 in Snow Light Snow
8:16 AM 1.4 °F - -0.4 °F 92% 30.42 in 4.0 mi Calm Calm - 0.00 in Snow Light Snow
8:54 AM 3.0 °F - 1.0 °F 91% 30.49 in 9.0 mi Calm Calm - 0.00 in   Scattered Clouds
9:34 AM 8.6 °F - 5.0 °F 85% 30.45 in 9.0 mi Calm Calm - N/A   Mostly Cloudy
9:54 AM 10.9 °F - 8.1 °F 88% 30.50 in 7.0 mi Calm Calm - N/A   Overcast
10:22 AM 12.2 °F - 8.6 °F 85% 30.44 in 9.0 mi Calm Calm - N/A   Scattered Clouds
10:54 AM 18.0 °F 12.7 °F 10.0 °F 71% 30.48 in 5.0 mi NNW 3.5 mph - N/A   Haze
11:18 AM 21.2 °F 14.9 °F 10.4 °F 63% 30.41 in 7.0 mi North 4.6 mph - N/A   Mostly Cloudy
11:41 AM 21.2 °F 14.9 °F 10.4 °F 63% 30.41 in 10.0 mi North 4.6 mph - N/A   Overcast
11:54 AM 23.0 °F 17.0 °F 10.0 °F 58% 30.45 in 9.0 mi North 4.6 mph - N/A   Mostly Cloudy
12:54 PM 25.0 °F 19.3 °F 10.0 °F 53% 30.43 in 10.0 mi NNE 4.6 mph - N/A   Clear
1:54 PM 26.1 °F 21.9 °F 10.9 °F 53% 30.43 in 10.0 mi North 3.5 mph - N/A   Clear
2:54 PM 25.0 °F 18.1 °F 10.0 °F 53% 30.42 in 10.0 mi North 5.8 mph - N/A   Clear
3:54 PM 25.0 °F 20.7 °F 9.0 °F 51% 30.42 in 10.0 mi NNE 3.5 mph - N/A   Clear
4:54 PM 21.9 °F 17.2 °F 8.1 °F 55% 30.43 in 10.0 mi North 3.5 mph - N/A   Clear
5:54 PM 19.9 °F - 9.0 °F 62% 30.43 in 10.0 mi Calm Calm - N/A   Clear
6:54 PM 16.0 °F - 8.1 °F 71% 30.43 in 10.0 mi Calm Calm - N/A   Clear
7:54 PM 14.0 °F - 8.1 °F 77% 30.44 in 10.0 mi Calm Calm - N/A   Clear
8:54 PM 12.9 °F - 8.1 °F 81% 30.44 in 10.0 mi Calm Calm - N/A   Clear
9:54 PM 12.9 °F - 8.1 °F 81% 30.43 in 10.0 mi Calm Calm - N/A   Partly Cloudy
10:54 PM 15.1 °F - 10.0 °F 80% 30.42 in 10.0 mi Calm Calm - N/A   Overcast
11:54 PM 16.0 °F - 9.0 °F 74% 30.37 in 10.0 mi Calm Calm - N/A   Overcast